| time (UTC) | temp F | wind direction | speed MPH | gust MPH | rain 1hr in | rain 24hr in | rain mn in | humidity % | barometer mb |
| 20260901024305 | 74 | 324 | 0.0 | 0.0 | 0.00 | 0.00 | 0.00 | 81 | 1019.2 |
| 20260901023805 | 74 | 324 | 0.0 | 0.0 | 0.00 | 0.00 | 0.00 | 80 | 1019.2 |
| 20260901023305 | 75 | 324 | 0.0 | 0.0 | 0.00 | 0.00 | 0.00 | 80 | 1019.3 |
| 20260901022805 | 75 | 324 | 0.0 | 0.0 | 0.00 | 0.00 | 0.00 | 80 | 1019.3 |
| 20260901022306 | 75 | 324 | 0.0 | 0.0 | 0.00 | 0.00 | 0.00 | 79 | 1019.4 |
| 20260901021804 | 75 | 324 | 0.0 | 0.0 | 0.00 | 0.00 | 0.00 | 79 | 1019.4 |
| 20260901021305 | 75 | 324 | 0.0 | 0.0 | 0.00 | 0.00 | 0.00 | 79 | 1019.5 |
| 20260901020805 | 75 | 324 | 0.0 | 0.0 | 0.00 | 0.00 | 0.00 | 79 | 1019.5 |
| 20260901015804 | 76 | 324 | 0.0 | 0.0 | 0.00 | 0.00 | 0.00 | 79 | 1019.6 |
| 20260901015306 | 76 | 324 | 0.0 | 0.0 | 0.00 | 0.00 | 0.00 | 79 | 1019.7 |
| 20260901014805 | 76 | 324 | 0.0 | 0.0 | 0.00 | 0.00 | 0.00 | 79 | 1019.7 |
| 20260901014304 | 76 | 324 | 0.0 | 0.0 | 0.00 | 0.00 | 0.00 | 79 | 1019.8 |
| 20260901013805 | 76 | 324 | 0.0 | 0.0 | 0.00 | 0.00 | 0.00 | 78 | 1019.8 |
| 20260901013304 | 76 | 324 | 0.0 | 0.0 | 0.00 | 0.00 | 0.00 | 78 | 1019.8 |
| 20260901012804 | 76 | 324 | 0.0 | 0.0 | 0.00 | 0.00 | 0.00 | 78 | 1019.7 |
| 20260901012306 | 76 | 324 | 0.0 | 0.0 | 0.00 | 0.00 | 0.00 | 79 | 1019.7 |
| 20260901010804 | 76 | 324 | 0.0 | 0.0 | 0.00 | 0.00 | 0.00 | 79 | 1019.7 |
| 20260901010304 | 76 | 324 | 0.0 | 0.0 | 0.00 | 0.00 | 0.00 | 79 | 1019.7 |
| 20260901005306 | 76 | 324 | 0.0 | 0.0 | 0.00 | 0.00 | 0.00 | 79 | 1019.8 |
| 20260901004804 | 76 | 324 | 0.0 | 0.0 | 0.00 | 0.00 | 0.00 | 79 | 1019.8 |
| 20260901004304 | 76 | 324 | 0.0 | 0.0 | 0.00 | 0.00 | 0.00 | 79 | 1019.9 |
| 20260901003805 | 76 | 324 | 0.0 | 0.0 | 0.00 | 0.00 | 0.00 | 79 | 1019.9 |
| 20260901002305 | 77 | 325 | 1.0 | 2.0 | 0.00 | 0.00 | 0.00 | 79 | 1019.8 |
| 20260901001805 | 77 | 325 | 0.0 | 3.0 | 0.00 | 0.00 | 0.00 | 78 | 1019.8 |
| 20260901001304 | 77 | 325 | 0.0 | 0.0 | 0.00 | 0.00 | 0.00 | 78 | 1019.8 |
| 20260901000804 | 77 | 325 | 0.0 | 0.0 | 0.00 | 0.00 | 0.00 | 78 | 1019.8 |
| 20260901000304 | 77 | 326 | 0.0 | 1.0 | 0.00 | 0.00 | 0.00 | 78 | 1019.9 |
| 20260831235805 | 77 | 326 | 0.0 | 1.0 | 0.00 | 0.00 | 0.00 | 78 | 1019.9 |
| 20260831235306 | 77 | 327 | 0.0 | 0.0 | 0.00 | 0.00 | 0.00 | 78 | 1019.9 |
| 20260831234804 | 77 | 325 | 0.0 | 1.0 | 0.00 | 0.00 | 0.00 | 78 | 1019.9 |
| 20260831234305 | 77 | 325 | 0.0 | 2.0 | 0.00 | 0.00 | 0.00 | 78 | 1019.9 |
| 20260831233805 | 77 | 325 | 0.0 | 2.0 | 0.00 | 0.00 | 0.00 | 78 | 1019.9 |
| 20260831233305 | 77 | 324 | 0.0 | 1.0 | 0.00 | 0.00 | 0.00 | 78 | 1019.8 |
| 20260831232805 | 77 | 328 | 0.0 | 1.0 | 0.00 | 0.00 | 0.00 | 78 | 1019.8 |
| 20260831232306 | 77 | 329 | 0.0 | 2.0 | 0.00 | 0.00 | 0.00 | 78 | 1019.8 |
| 20260831231804 | 77 | 326 | 0.0 | 1.0 | 0.00 | 0.00 | 0.00 | 78 | 1019.8 |
| 20260831231304 | 77 | 326 | 1.0 | 3.0 | 0.00 | 0.00 | 0.00 | 78 | 1019.8 |
| 20260831230805 | 77 | 325 | 1.0 | 3.0 | 0.00 | 0.00 | 0.00 | 77 | 1019.7 |
| 20260831225804 | 78 | 328 | 0.0 | 1.0 | 0.00 | 0.00 | 0.00 | 77 | 1019.6 |
| 20260831225306 | 78 | 331 | 0.0 | 0.0 | 0.00 | 0.00 | 0.00 | 77 | 1019.7 |
| 20260831224804 | 78 | 328 | 0.0 | 1.0 | 0.00 | 0.00 | 0.00 | 77 | 1019.7 |
| 20260831224305 | 78 | 326 | 0.0 | 1.0 | 0.00 | 0.00 | 0.00 | 77 | 1019.7 |
| 20260831223804 | 78 | 326 | 1.0 | 2.0 | 0.00 | 0.00 | 0.00 | 77 | 1019.6 |
| 20260831223304 | 78 | 328 | 0.0 | 2.0 | 0.00 | 0.00 | 0.00 | 76 | 1019.6 |
| 20260831222306 | 78 | 284 | 0.0 | 3.0 | 0.00 | 0.00 | 0.00 | 75 | 1019.5 |
| 20260831221804 | 78 | 325 | 0.0 | 2.0 | 0.00 | 0.00 | 0.00 | 75 | 1019.5 |
| 20260831221305 | 78 | 327 | 0.0 | 0.0 | 0.00 | 0.00 | 0.00 | 75 | 1019.5 |
| 20260831220813 | 78 | 314 | 0.0 | 2.0 | 0.00 | 0.00 | 0.00 | 74 | 1019.5 |
| 20260831220305 | 78 | 325 | 1.0 | 3.0 | 0.00 | 0.00 | 0.00 | 74 | 1019.6 |
| 20260831215805 | 78 | 323 | 0.0 | 2.0 | 0.00 | 0.00 | 0.00 | 74 | 1019.5 |
| 20260831215306 | 78 | 326 | 0.0 | 2.0 | 0.00 | 0.00 | 0.00 | 74 | 1019.5 |
| 20260831214804 | 78 | 326 | 0.0 | 1.0 | 0.00 | 0.00 | 0.00 | 73 | 1019.5 |
| 20260831214304 | 78 | 328 | 0.0 | 1.0 | 0.00 | 0.00 | 0.00 | 73 | 1019.4 |
| 20260831213805 | 78 | 324 | 0.0 | 2.0 | 0.00 | 0.00 | 0.00 | 73 | 1019.4 |
| 20260831213305 | 78 | 325 | 0.0 | 0.0 | 0.00 | 0.00 | 0.00 | 72 | 1019.4 |
| 20260831212306 | 78 | 323 | 0.0 | 1.0 | 0.00 | 0.00 | 0.00 | 73 | 1019.3 |
| 20260831211805 | 78 | 325 | 0.0 | 1.0 | 0.00 | 0.00 | 0.00 | 73 | 1019.3 |
| 20260831211305 | 78 | 325 | 0.0 | 2.0 | 0.00 | 0.00 | 0.00 | 73 | 1019.3 |
| 20260831210805 | 78 | 324 | 1.0 | 2.0 | 0.00 | 0.00 | 0.00 | 73 | 1019.3 |
| 20260831210305 | 78 | 330 | 0.0 | 2.0 | 0.00 | 0.00 | 0.00 | 73 | 1019.2 |
| 20260831205805 | 78 | 322 | 1.0 | 3.0 | 0.00 | 0.00 | 0.00 | 73 | 1019.2 |
| 20260831205305 | 78 | 323 | 1.0 | 3.0 | 0.00 | 0.00 | 0.00 | 73 | 1019.2 |
| 20260831204804 | 78 | 327 | 1.0 | 2.0 | 0.00 | 0.00 | 0.00 | 72 | 1019.2 |
| 20260831204305 | 78 | 324 | 1.0 | 3.0 | 0.00 | 0.00 | 0.00 | 72 | 1019.2 |
| 20260831203805 | 78 | 326 | 2.0 | 3.0 | 0.00 | 0.00 | 0.00 | 71 | 1019.1 |
| 20260831203304 | 79 | 304 | 1.0 | 3.0 | 0.00 | 0.00 | 0.00 | 71 | 1019.1 |
| 20260831202804 | 79 | 321 | 1.0 | 3.0 | 0.00 | 0.00 | 0.00 | 71 | 1019.0 |
| 20260831202306 | 79 | 320 | 2.0 | 3.0 | 0.00 | 0.00 | 0.00 | 70 | 1018.9 |
| 20260831201805 | 79 | 319 | 1.0 | 3.0 | 0.00 | 0.00 | 0.00 | 70 | 1018.8 |
| 20260831200804 | 79 | 324 | 2.0 | 3.0 | 0.00 | 0.00 | 0.00 | 70 | 1018.7 |
| 20260831200304 | 79 | 323 | 1.0 | 3.0 | 0.00 | 0.00 | 0.00 | 70 | 1018.7 |
| 20260831195804 | 79 | 316 | 2.0 | 5.0 | 0.00 | 0.00 | 0.00 | 70 | 1018.6 |
| 20260831195306 | 79 | 324 | 2.0 | 5.0 | 0.00 | 0.00 | 0.00 | 70 | 1018.5 |
| 20260831194804 | 79 | 318 | 2.0 | 5.0 | 0.00 | 0.00 | 0.00 | 70 | 1018.4 |
| 20260831194305 | 79 | 317 | 1.0 | 5.0 | 0.00 | 0.00 | 0.00 | 70 | 1018.4 |
| 20260831193805 | 79 | 320 | 2.0 | 5.0 | 0.00 | 0.00 | 0.00 | 70 | 1018.3 |
| 20260831193305 | 79 | 325 | 1.0 | 6.0 | 0.00 | 0.00 | 0.00 | 70 | 1018.2 |
| 20260831192805 | 80 | 316 | 2.0 | 3.0 | 0.00 | 0.00 | 0.00 | 69 | 1018.2 |
| 20260831192306 | 80 | 322 | 1.0 | 3.0 | 0.00 | 0.00 | 0.00 | 69 | 1018.0 |
| 20260831191805 | 80 | 326 | 1.0 | 2.0 | 0.00 | 0.00 | 0.00 | 68 | 1017.9 |
| 20260831191305 | 80 | 325 | 2.0 | 3.0 | 0.00 | 0.00 | 0.00 | 68 | 1017.9 |
| 20260831190804 | 80 | 326 | 2.0 | 5.0 | 0.00 | 0.00 | 0.00 | 67 | 1017.8 |
| 20260831190304 | 80 | 327 | 1.0 | 3.0 | 0.00 | 0.00 | 0.00 | 67 | 1017.8 |
| 20260831185306 | 80 | 321 | 1.0 | 5.0 | 0.00 | 0.00 | 0.00 | 66 | 1017.6 |
| 20260831184805 | 81 | 320 | 1.0 | 3.0 | 0.00 | 0.00 | 0.00 | 65 | 1017.5 |
| 20260831184305 | 81 | 322 | 1.0 | 3.0 | 0.00 | 0.00 | 0.00 | 65 | 1017.5 |
| 20260831183805 | 81 | 326 | 0.0 | 3.0 | 0.00 | 0.00 | 0.00 | 65 | 1017.4 |
| 20260831183305 | 81 | 324 | 0.0 | 3.0 | 0.00 | 0.00 | 0.00 | 65 | 1017.4 |
| 20260831182804 | 81 | 316 | 2.0 | 3.0 | 0.00 | 0.00 | 0.00 | 64 | 1017.3 |
| 20260831181805 | 81 | 324 | 2.0 | 5.0 | 0.00 | 0.00 | 0.00 | 63 | 1017.3 |
| 20260831181305 | 82 | 304 | 2.0 | 6.0 | 0.00 | 0.00 | 0.00 | 63 | 1017.2 |
| 20260831180804 | 82 | 325 | 2.0 | 5.0 | 0.00 | 0.00 | 0.00 | 63 | 1017.2 |
| 20260831180305 | 82 | 314 | 2.0 | 6.0 | 0.00 | 0.00 | 0.00 | 62 | 1017.2 |
| 20260831175306 | 83 | 318 | 1.0 | 3.0 | 0.00 | 0.00 | 0.00 | 62 | 1017.1 |
| 20260831174805 | 83 | 323 | 1.0 | 3.0 | 0.00 | 0.00 | 0.00 | 61 | 1017.1 |
| 20260831173304 | 84 | 323 | 2.0 | 3.0 | 0.00 | 0.00 | 0.00 | 60 | 1016.9 |
| 20260831172804 | 85 | 322 | 2.0 | 5.0 | 0.00 | 0.00 | 0.00 | 60 | 1016.9 |
| 20260831172306 | 85 | 320 | 3.0 | 6.0 | 0.00 | 0.00 | 0.00 | 60 | 1017.0 |
| 20260831171804 | 85 | 326 | 2.0 | 5.0 | 0.00 | 0.00 | 0.00 | 60 | 1016.9 |
| 20260831171304 | 86 | 319 | 2.0 | 8.0 | 0.00 | 0.00 | 0.00 | 59 | 1016.9 |
| 20260831170805 | 86 | 327 | 2.0 | 3.0 | 0.00 | 0.00 | 0.00 | 59 | 1016.9 |
| 20260831170304 | 86 | 322 | 2.0 | 5.0 | 0.00 | 0.00 | 0.00 | 58 | 1016.9 |
| 20260831165805 | 87 | 293 | 2.0 | 6.0 | 0.00 | 0.00 | 0.00 | 58 | 1017.0 |
| 20260831165305 | 87 | 317 | 3.0 | 5.0 | 0.00 | 0.00 | 0.00 | 57 | 1017.0 |
| 20260831164805 | 87 | 311 | 2.0 | 6.0 | 0.00 | 0.00 | 0.00 | 57 | 1017.0 |
| 20260831164305 | 86 | 318 | 1.0 | 3.0 | 0.00 | 0.00 | 0.00 | 58 | 1017.0 |
| 20260831163804 | 86 | 323 | 3.0 | 7.0 | 0.00 | 0.00 | 0.00 | 58 | 1017.0 |
| 20260831163305 | 87 | 321 | 1.0 | 7.0 | 0.00 | 0.00 | 0.00 | 57 | 1016.9 |
| 20260831162805 | 87 | 324 | 2.0 | 7.0 | 0.00 | 0.00 | 0.00 | 57 | 1017.0 |
| 20260831162306 | 86 | 326 | 1.0 | 5.0 | 0.00 | 0.00 | 0.00 | 57 | 1017.0 |
| 20260831161805 | 87 | 298 | 3.0 | 7.0 | 0.00 | 0.00 | 0.00 | 57 | 1017.0 |
| 20260831160804 | 86 | 306 | 2.0 | 6.0 | 0.00 | 0.00 | 0.00 | 58 | 1017.0 |
| 20260831155804 | 86 | 318 | 2.0 | 6.0 | 0.00 | 0.00 | 0.00 | 58 | 1017.0 |
| 20260831154805 | 86 | 322 | 2.0 | 3.0 | 0.00 | 0.00 | 0.00 | 60 | 1017.0 |
| 20260831154304 | 85 | 312 | 2.0 | 3.0 | 0.00 | 0.00 | 0.00 | 61 | 1017.1 |
| 20260831153805 | 85 | 323 | 2.0 | 8.0 | 0.00 | 0.00 | 0.00 | 61 | 1017.1 |
| 20260831153305 | 85 | 320 | 3.0 | 12.0 | 0.00 | 0.00 | 0.00 | 61 | 1017.1 |
| 20260831152804 | 85 | 307 | 3.0 | 10.0 | 0.00 | 0.00 | 0.00 | 60 | 1017.1 |
| 20260831152306 | 85 | 314 | 2.0 | 7.0 | 0.00 | 0.00 | 0.00 | 60 | 1017.2 |
| 20260831151304 | 86 | 319 | 3.0 | 7.0 | 0.00 | 0.00 | 0.00 | 60 | 1017.1 |
| 20260831150805 | 86 | 328 | 3.0 | 7.0 | 0.00 | 0.00 | 0.00 | 60 | 1017.1 |
| 20260831150305 | 86 | 320 | 2.0 | 7.0 | 0.00 | 0.00 | 0.00 | 60 | 1017.0 |
| 20260831145804 | 86 | 321 | 2.0 | 6.0 | 0.00 | 0.00 | 0.00 | 59 | 1017.1 |
| 20260831145306 | 86 | 311 | 2.0 | 5.0 | 0.00 | 0.00 | 0.00 | 59 | 1017.0 |
| 20260831144804 | 87 | 318 | 2.0 | 7.0 | 0.00 | 0.00 | 0.00 | 58 | 1017.0 |
| 20260831144305 | 87 | 326 | 2.0 | 7.0 | 0.00 | 0.00 | 0.00 | 58 | 1017.0 |
| 20260831143805 | 87 | 319 | 1.0 | 7.0 | 0.00 | 0.00 | 0.00 | 57 | 1017.0 |
| 20260831143306 | 88 | 323 | 3.0 | 5.0 | 0.00 | 0.00 | 0.00 | 56 | 1016.9 |
| 20260831142305 | 88 | 322 | 1.0 | 7.0 | 0.00 | 0.00 | 0.00 | 55 | 1017.1 |
| 20260831141804 | 89 | 324 | 3.0 | 9.0 | 0.00 | 0.00 | 0.00 | 54 | 1017.0 |
| 20260831140303 | 90 | 313 | 3.0 | 7.0 | 0.00 | 0.00 | 0.00 | 54 | 1017.1 |
| 20260831135804 | 89 | 317 | 3.0 | 5.0 | 0.00 | 0.00 | 0.00 | 54 | 1017.1 |
| 20260831135306 | 90 | 317 | 3.0 | 9.0 | 0.00 | 0.00 | 0.00 | 54 | 1017.0 |
| 20260831134803 | 90 | 319 | 3.0 | 8.0 | 0.00 | 0.00 | 0.00 | 54 | 1017.1 |
| 20260831134304 | 90 | 313 | 3.0 | 10.0 | 0.00 | 0.00 | 0.00 | 53 | 1017.0 |
| 20260831133803 | 90 | 315 | 3.0 | 9.0 | 0.00 | 0.00 | 0.00 | 53 | 1017.1 |
| 20260831133304 | 90 | 314 | 2.0 | 8.0 | 0.00 | 0.00 | 0.00 | 53 | 1017.1 |
| 20260831132803 | 90 | 323 | 3.0 | 8.0 | 0.00 | 0.00 | 0.00 | 52 | 1017.1 |
| 20260831132306 | 91 | 317 | 4.0 | 9.0 | 0.00 | 0.00 | 0.00 | 51 | 1017.1 |
| 20260831131804 | 91 | 323 | 3.0 | 12.0 | 0.00 | 0.00 | 0.00 | 51 | 1017.1 |
| 20260831131304 | 91 | 318 | 3.0 | 9.0 | 0.00 | 0.00 | 0.00 | 50 | 1017.0 |
| 20260831130303 | 91 | 324 | 2.0 | 7.0 | 0.00 | 0.00 | 0.00 | 50 | 1017.1 |
| 20260831125804 | 91 | 321 | 3.0 | 7.0 | 0.00 | 0.00 | 0.00 | 51 | 1017.1 |
| 20260831125306 | 91 | 310 | 3.0 | 6.0 | 0.00 | 0.00 | 0.00 | 50 | 1017.2 |
| 20260831124804 | 91 | 322 | 3.0 | 9.0 | 0.00 | 0.00 | 0.00 | 51 | 1017.2 |
| 20260831124303 | 91 | 315 | 3.0 | 8.0 | 0.00 | 0.00 | 0.00 | 50 | 1017.2 |
| 20260831123303 | 91 | 323 | 3.0 | 6.0 | 0.00 | 0.00 | 0.00 | 49 | 1017.2 |
| 20260831122804 | 91 | 326 | 2.0 | 5.0 | 0.00 | 0.00 | 0.00 | 49 | 1017.3 |
| 20260831122305 | 91 | 326 | 1.0 | 6.0 | 0.00 | 0.00 | 0.00 | 49 | 1017.3 |
| 20260831121804 | 92 | 310 | 2.0 | 6.0 | 0.00 | 0.00 | 0.00 | 49 | 1017.3 |
| 20260831121304 | 92 | 318 | 2.0 | 9.0 | 0.00 | 0.00 | 0.00 | 48 | 1017.3 |
| 20260831120803 | 92 | 317 | 1.0 | 6.0 | 0.00 | 0.00 | 0.00 | 47 | 1017.4 |
| 20260831120303 | 92 | 320 | 2.0 | 5.0 | 0.00 | 0.00 | 0.00 | 48 | 1017.4 |
| 20260831115803 | 92 | 326 | 2.0 | 6.0 | 0.00 | 0.00 | 0.00 | 48 | 1017.5 |
| 20260831114803 | 91 | 272 | 0.0 | 2.0 | 0.00 | 0.00 | 0.00 | 48 | 1017.6 |
| 20260831114304 | 90 | 325 | 2.0 | 5.0 | 0.00 | 0.00 | 0.00 | 48 | 1017.7 |
| 20260831113803 | 90 | 322 | 2.0 | 7.0 | 0.00 | 0.00 | 0.00 | 48 | 1017.7 |
| 20260831113304 | 90 | 325 | 1.0 | 3.0 | 0.00 | 0.00 | 0.00 | 48 | 1017.7 |
| 20260831112803 | 90 | 289 | 1.0 | 5.0 | 0.00 | 0.00 | 0.00 | 47 | 1017.7 |
| 20260831112307 | 90 | 328 | 0.0 | 3.0 | 0.00 | 0.00 | 0.00 | 47 | 1017.7 |
| 20260831111303 | 90 | 250 | 0.0 | 2.0 | 0.00 | 0.00 | 0.00 | 48 | 1017.8 |
| 20260831110803 | 90 | 274 | 1.0 | 5.0 | 0.00 | 0.00 | 0.00 | 48 | 1017.9 |
| 20260831110303 | 90 | 321 | 0.0 | 3.0 | 0.00 | 0.00 | 0.00 | 48 | 1017.9 |
| 20260831105804 | 90 | 328 | 1.0 | 3.0 | 0.00 | 0.00 | 0.00 | 48 | 1018.0 |
| 20260831105306 | 89 | 282 | 0.0 | 2.0 | 0.00 | 0.00 | 0.00 | 48 | 1018.0 |
| 20260831104804 | 89 | 330 | 1.0 | 5.0 | 0.00 | 0.00 | 0.00 | 49 | 1018.1 |
| 20260831104303 | 89 | 255 | 1.0 | 3.0 | 0.00 | 0.00 | 0.00 | 49 | 1018.1 |
| 20260831103804 | 88 | 314 | 1.0 | 5.0 | 0.00 | 0.00 | 0.00 | 49 | 1018.1 |
| 20260831102305 | 88 | 328 | 2.0 | 3.0 | 0.00 | 0.00 | 0.00 | 48 | 1018.2 |
| 20260831101803 | 87 | 274 | 1.0 | 3.0 | 0.00 | 0.00 | 0.00 | 46 | 1018.2 |
| 20260831100304 | 86 | 305 | 0.0 | 3.0 | 0.00 | 0.00 | 0.00 | 47 | 1018.3 |
| 20260831095804 | 86 | 288 | 0.0 | 3.0 | 0.00 | 0.00 | 0.00 | 46 | 1018.3 |
| 20260831095306 | 86 | 331 | 0.0 | 2.0 | 0.00 | 0.00 | 0.00 | 45 | 1018.4 |
| 20260831094804 | 86 | 275 | 1.0 | 2.0 | 0.00 | 0.00 | 0.00 | 43 | 1018.4 |
| 20260831094303 | 85 | 310 | 2.0 | 3.0 | 0.00 | 0.00 | 0.00 | 45 | 1018.4 |
| 20260831093303 | 84 | 260 | 0.0 | 2.0 | 0.00 | 0.00 | 0.00 | 48 | 1018.5 |
| 20260831092803 | 83 | 288 | 0.0 | 1.0 | 0.00 | 0.00 | 0.00 | 49 | 1018.5 |
| 20260831092306 | 83 | 274 | 1.0 | 2.0 | 0.00 | 0.00 | 0.00 | 50 | 1018.5 |
| 20260831091804 | 82 | 281 | 1.0 | 2.0 | 0.00 | 0.00 | 0.00 | 50 | 1018.5 |
| 20260831091305 | 82 | 269 | 0.0 | 2.0 | 0.00 | 0.00 | 0.00 | 52 | 1018.6 |
| 20260831090804 | 82 | 272 | 0.0 | 2.0 | 0.00 | 0.00 | 0.00 | 53 | 1018.6 |
| 20260831090304 | 82 | 267 | 1.0 | 2.0 | 0.00 | 0.00 | 0.00 | 53 | 1018.6 |
| 20260831085804 | 81 | 270 | 0.0 | 2.0 | 0.00 | 0.00 | 0.00 | 56 | 1018.6 |
| 20260831085306 | 81 | 269 | 0.0 | 1.0 | 0.00 | 0.00 | 0.00 | 57 | 1018.5 |
| 20260831084804 | 80 | 274 | 0.0 | 3.0 | 0.00 | 0.00 | 0.00 | 57 | 1018.5 |
| 20260831084303 | 79 | 280 | 0.0 | 1.0 | 0.00 | 0.00 | 0.00 | 55 | 1018.5 |
| 20260831083804 | 78 | 280 | 1.0 | 3.0 | 0.00 | 0.00 | 0.00 | 53 | 1018.5 |
| 20260831083303 | 78 | 268 | 0.0 | 3.0 | 0.00 | 0.00 | 0.00 | 51 | 1018.5 |
| 20260831082803 | 77 | 317 | 0.0 | 2.0 | 0.00 | 0.00 | 0.00 | 52 | 1018.5 |
| 20260831082306 | 77 | 266 | 1.0 | 2.0 | 0.00 | 0.00 | 0.00 | 51 | 1018.5 |
| 20260831080803 | 75 | 258 | 1.0 | 3.0 | 0.00 | 0.00 | 0.00 | 53 | 1018.4 |
| 20260831080304 | 75 | 274 | 0.0 | 3.0 | 0.00 | 0.00 | 0.00 | 54 | 1018.3 |
| 20260831075804 | 74 | 281 | 0.0 | 1.0 | 0.00 | 0.00 | 0.00 | 56 | 1018.3 |
| 20260831075306 | 72 | 272 | 1.0 | 3.0 | 0.00 | 0.00 | 0.00 | 56 | 1018.3 |
| 20260831074804 | 72 | 269 | 1.0 | 2.0 | 0.00 | 0.00 | 0.00 | 57 | 1018.3 |
| 20260831074304 | 71 | 267 | 1.0 | 6.0 | 0.00 | 0.00 | 0.00 | 58 | 1018.3 |
| 20260831073303 | 70 | 274 | 1.0 | 3.0 | 0.00 | 0.00 | 0.00 | 58 | 1018.3 |
| 20260831072804 | 70 | 272 | 2.0 | 6.0 | 0.00 | 0.00 | 0.00 | 59 | 1018.3 |
| 20260831072306 | 69 | 273 | 3.0 | 7.0 | 0.00 | 0.00 | 0.00 | 59 | 1018.2 |
| 20260831071804 | 69 | 272 | 4.0 | 10.0 | 0.00 | 0.00 | 0.00 | 59 | 1018.2 |
| 20260831070804 | 69 | 279 | 3.0 | 7.0 | 0.00 | 0.00 | 0.00 | 60 | 1018.2 |
| 20260831070303 | 68 | 279 | 2.0 | 7.0 | 0.00 | 0.00 | 0.00 | 60 | 1018.1 |
| 20260831065803 | 68 | 270 | 2.0 | 7.0 | 0.00 | 0.00 | 0.00 | 61 | 1018.1 |
| 20260831065306 | 68 | 278 | 2.0 | 6.0 | 0.00 | 0.00 | 0.00 | 61 | 1018.1 |
| 20260831064804 | 67 | 280 | 3.0 | 7.0 | 0.00 | 0.00 | 0.00 | 61 | 1018.1 |
| 20260831064304 | 67 | 268 | 2.0 | 8.0 | 0.00 | 0.00 | 0.00 | 62 | 1018.0 |
| 20260831063804 | 67 | 273 | 3.0 | 6.0 | 0.00 | 0.00 | 0.00 | 62 | 1017.9 |
| 20260831063304 | 67 | 277 | 2.0 | 6.0 | 0.00 | 0.00 | 0.00 | 63 | 1017.8 |
| 20260831062804 | 67 | 276 | 2.0 | 3.0 | 0.00 | 0.00 | 0.00 | 63 | 1017.9 |
| 20260831061803 | 66 | 279 | 3.0 | 7.0 | 0.00 | 0.00 | 0.00 | 64 | 1017.7 |
| 20260831061304 | 66 | 275 | 3.0 | 9.0 | 0.00 | 0.00 | 0.00 | 65 | 1017.6 |
| 20260831060804 | 66 | 277 | 3.0 | 9.0 | 0.00 | 0.00 | 0.00 | 65 | 1017.5 |
| 20260831060303 | 66 | 274 | 3.0 | 7.0 | 0.00 | 0.00 | 0.00 | 65 | 1017.5 |
| 20260831055804 | 65 | 276 | 3.0 | 9.0 | 0.00 | 0.00 | 0.00 | 65 | 1017.5 |
| 20260831055306 | 66 | 274 | 3.0 | 7.0 | 0.00 | 0.00 | 0.00 | 64 | 1017.4 |
| 20260831054804 | 66 | 278 | 2.0 | 6.0 | 0.00 | 0.00 | 0.00 | 64 | 1017.3 |
| 20260831054304 | 66 | 277 | 3.0 | 6.0 | 0.00 | 0.00 | 0.00 | 64 | 1017.3 |
| 20260831053803 | 66 | 279 | 4.0 | 9.0 | 0.00 | 0.00 | 0.00 | 64 | 1017.3 |
| 20260831053304 | 66 | 277 | 3.0 | 8.0 | 0.00 | 0.00 | 0.00 | 64 | 1017.2 |
| 20260831052803 | 66 | 269 | 2.0 | 6.0 | 0.00 | 0.00 | 0.00 | 64 | 1017.1 |
| 20260831051803 | 66 | 276 | 3.0 | 7.0 | 0.00 | 0.00 | 0.00 | 64 | 1017.0 |
| 20260831051305 | 66 | 275 | 3.0 | 8.0 | 0.00 | 0.00 | 0.00 | 64 | 1016.9 |
| 20260831050304 | 66 | 272 | 2.0 | 5.0 | 0.00 | 0.00 | 0.00 | 64 | 1016.8 |
| 20260831045804 | 66 | 276 | 2.0 | 5.0 | 0.00 | 0.00 | 0.00 | 64 | 1016.8 |
| 20260831044804 | 66 | 273 | 2.0 | 5.0 | 0.00 | 0.00 | 0.00 | 64 | 1016.8 |
| 20260831044303 | 66 | 274 | 3.0 | 6.0 | 0.00 | 0.00 | 0.00 | 63 | 1016.7 |
| 20260831043804 | 67 | 274 | 1.0 | 6.0 | 0.00 | 0.00 | 0.00 | 63 | 1016.8 |
| 20260831043304 | 67 | 273 | 3.0 | 6.0 | 0.00 | 0.00 | 0.00 | 63 | 1016.8 |
| 20260831042805 | 67 | 273 | 2.0 | 6.0 | 0.00 | 0.00 | 0.00 | 63 | 1016.8 |
| 20260831041804 | 67 | 273 | 3.0 | 8.0 | 0.00 | 0.00 | 0.00 | 64 | 1016.8 |
| 20260831041304 | 66 | 279 | 2.0 | 6.0 | 0.00 | 0.00 | 0.00 | 66 | 1016.8 |
| 20260831040804 | 66 | 321 | 0.0 | 0.0 | 0.00 | 0.00 | 0.00 | 68 | 1016.7 |
| 20260831035804 | 66 | 321 | 0.0 | 0.0 | 0.00 | 0.00 | 0.00 | 68 | 1016.6 |
| 20260831035306 | 66 | 321 | 0.0 | 0.0 | 0.00 | 0.00 | 0.00 | 68 | 1016.7 |
| 20260831034303 | 67 | 321 | 0.0 | 0.0 | 0.00 | 0.00 | 0.00 | 68 | 1016.7 |
| 20260831033804 | 67 | 321 | 0.0 | 0.0 | 0.00 | 0.00 | 0.00 | 68 | 1016.6 |
| 20260831033304 | 67 | 321 | 0.0 | 1.0 | 0.00 | 0.00 | 0.00 | 67 | 1016.6 |
| 20260831032804 | 68 | 321 | 0.0 | 0.0 | 0.00 | 0.00 | 0.00 | 66 | 1016.6 |
| 20260831032306 | 68 | 321 | 0.0 | 1.0 | 0.00 | 0.00 | 0.00 | 65 | 1016.6 |
| 20260831031804 | 69 | 269 | 0.0 | 1.0 | 0.00 | 0.00 | 0.00 | 60 | 1016.7 |
| 20260831031304 | 69 | 274 | 1.0 | 3.0 | 0.00 | 0.00 | 0.00 | 59 | 1016.6 |
| 20260831030304 | 69 | 270 | 0.0 | 2.0 | 0.00 | 0.00 | 0.00 | 59 | 1016.6 |
| 20260831025804 | 69 | 267 | 0.0 | 2.0 | 0.00 | 0.00 | 0.00 | 59 | 1016.6 |
| 20260831025306 | 69 | 268 | 1.0 | 3.0 | 0.00 | 0.00 | 0.00 | 58 | 1016.5 |
| 20260831024804 | 69 | 263 | 0.0 | 2.0 | 0.00 | 0.00 | 0.00 | 59 | 1016.5 |